Orange, MA

4:23 AM EDT on October 22, 2017 (GMT -0400)
Orange Municipal

Weather History for KORE - September, 2012

Change the Weather History Date:

Tuesday, September 18, 2012

  Actual Average Record
Temperature  
Mean Temperature 61 °F -  
Max Temperature 72 °F 70 °F 82 °F (2015)
Min Temperature 50 °F 47 °F 36 °F (2007)
Degree Days  
Heating Degree Days 4    
Growing Degree Days 11 (Base 50)    
Moisture  
Dew Point 57 °F    
Average Humidity 93    
Maximum Humidity 100    
Minimum Humidity 81    
Precipitation  
Precipitation 0.98 in - - ()
Sea Level Pressure  
Sea Level Pressure 29.92 in    
Wind  
Wind Speed 3 mph (South)    
Max Wind Speed 21 mph    
Max Gust Speed 34 mph    
Visibility 6 miles    
Events Rain    
Averages and records for this station are not official NWS values.
T = Trace of Precipitation, MM = Missing Value Source: NWS Daily Summary

Daily Weather History Graph

Daily Weather History Graph

Search for Another Location

Airport or City:

Trip Planner

Search our weather history database for the weather conditions in past years. The results will help you decide how hot, cold, wet, or windy it might be!

Date:

Astronomy

Sep. 18, 2012 Rise Set
Actual Time 6:32 AM EDT 6:52 PM EDT
Civil Twilight 6:04 AM EDT 7:20 PM EDT
Nautical Twilight 5:31 AM EDT 7:54 PM EDT
Astronomical Twilight 4:57 AM EDT 8:27 PM EDT
Moon 9:34 AM EDT (9/18) 8:07 PM EDT (9/18)
Length of Visible Light 13h 16m
Length of Day
12h 20m
Waxing Crescent, 9% of the Moon is Illuminated
Sep 18
Waxing Crescent
Sep 22
First Quarter
Sep 29
Full
Oct 8
Last Quarter
Oct 15
New

Hourly Weather History & Observations

Time (EDT) Temp. Dew Point Humidity Pressure Visibility Wind Dir Wind Speed Gust Speed Precip Events Conditions
12:02 AM 53.6 °F 51.8 °F 94% 30.05 in 1.0 mi Calm Calm - N/A   Mist
12:21 AM 51.8 °F 51.8 °F 100% 30.05 in 1.2 mi Calm Calm - N/A   Partly Cloudy
12:23 AM 51.8 °F 51.8 °F 100% 30.05 in 2.5 mi Calm Calm - N/A   Partly Cloudy
12:30 AM 51.8 °F 51.8 °F 100% 30.05 in 4.0 mi Calm Calm - N/A   Partly Cloudy
12:52 AM 53.1 °F 52.0 °F 96% 30.05 in 9.0 mi Calm Calm - N/A   Clear
1:18 AM 51.8 °F 50.0 °F 94% 30.05 in 1.5 mi Calm Calm - N/A   Clear
1:20 AM 51.8 °F 50.0 °F 94% 30.05 in 1.0 mi Calm Calm - N/A   Clear
1:30 AM 51.8 °F 50.0 °F 94% 30.05 in 1.8 mi Calm Calm - N/A   Clear
1:37 AM 50.0 °F 50.0 °F 100% 30.05 in 3.0 mi Calm Calm - N/A   Clear
1:41 AM 51.8 °F 50.0 °F 94% 30.05 in 1.8 mi Calm Calm - N/A   Clear
1:50 AM 51.8 °F 50.0 °F 94% 30.05 in 3.0 mi Calm Calm - N/A   Clear
1:51 AM 51.1 °F 50.0 °F 96% 30.05 in 4.0 mi Calm Calm - N/A   Clear
2:00 AM 51.8 °F 51.8 °F 100% 30.04 in 2.0 mi Calm Calm - N/A   Partly Cloudy
2:03 AM 51.8 °F 50.0 °F 94% 30.04 in 1.2 mi Calm Calm - N/A   Partly Cloudy
2:10 AM 51.8 °F 50.0 °F 94% 30.05 in 2.0 mi Calm Calm - N/A   Scattered Clouds
2:17 AM 51.8 °F 50.0 °F 94% 30.04 in 3.0 mi Calm Calm - N/A   Partly Cloudy
2:52 AM 50.0 °F 48.9 °F 96% 30.04 in 5.0 mi Calm Calm - N/A   Clear
3:08 AM 50.0 °F 48.2 °F 94% 30.03 in 5.0 mi Calm Calm - N/A   Partly Cloudy
3:19 AM 50.0 °F 48.2 °F 94% 30.03 in 1.8 mi Calm Calm - N/A   Scattered Clouds
3:25 AM 50.0 °F 48.2 °F 94% 30.03 in 1.0 mi Calm Calm - N/A   Mist
3:34 AM 50.0 °F 48.2 °F 94% 30.02 in 0.8 mi Calm Calm - N/A   Mist
3:37 AM 50.0 °F 48.2 °F 94% 30.02 in 1.2 mi Calm Calm - N/A   Mostly Cloudy
3:39 AM 50.0 °F 48.2 °F 94% 30.02 in 2.0 mi Calm Calm - N/A   Mostly Cloudy
3:52 AM 51.1 °F 50.0 °F 96% 30.02 in 6.0 mi Calm Calm - N/A   Scattered Clouds
4:52 AM 50.0 °F 48.9 °F 96% 30.00 in 10.0 mi Calm Calm - N/A   Partly Cloudy
5:52 AM 50.0 °F 48.0 °F 93% 29.99 in 8.0 mi Calm Calm - N/A   Clear
6:52 AM 51.1 °F 48.9 °F 92% 29.99 in 8.0 mi Calm Calm - N/A   Partly Cloudy
8:32 AM 55.4 °F 53.6 °F 94% 29.98 in 9.0 mi Calm Calm - 0.00 in Rain Light Rain
8:52 AM 57.9 °F 55.9 °F 93% 29.99 in 9.0 mi Calm Calm - 0.00 in Rain Light Rain
9:52 AM 62.1 °F 60.1 °F 93% 29.96 in 8.0 mi SSE 3.5 mph - 0.06 in Rain Light Rain
10:00 AM 62.6 °F 60.8 °F 94% 29.95 in 8.0 mi South 5.8 mph - 0.00 in Rain Light Rain
10:20 AM 62.6 °F 60.8 °F 94% 29.93 in 7.0 mi South 6.9 mph - 0.02 in Rain Light Rain
10:52 AM 63.0 °F 61.0 °F 93% 29.92 in 8.0 mi South 5.8 mph - 0.03 in Rain Light Rain
11:52 AM 66.0 °F 63.0 °F 90% 29.88 in 10.0 mi SSE 12.7 mph 20.7 mph 0.00 in   Overcast
12:06 PM 66.2 °F 62.6 °F 88% 29.87 in 10.0 mi SSE 11.5 mph 20.7 mph N/A   Overcast
12:41 PM 68.0 °F 64.4 °F 88% 29.85 in 10.0 mi SSE 12.7 mph 20.7 mph 0.00 in Rain Light Rain
12:52 PM 68.0 °F 64.0 °F 87% 29.85 in 8.0 mi SSE 16.1 mph 21.9 mph 0.00 in Rain Light Rain
1:14 PM 68.0 °F 64.4 °F 88% 29.83 in 6.0 mi SSE 9.2 mph 23.0 mph 0.01 in Rain Light Rain
1:40 PM 66.2 °F 64.4 °F 94% 29.83 in 1.8 mi South 10.4 mph 18.4 mph 0.06 in Rain Heavy Rain
1:52 PM 66.9 °F 64.9 °F 93% 29.83 in 3.0 mi South 11.5 mph 19.6 mph 0.09 in Rain Light Rain
2:25 PM 66.2 °F 64.4 °F 94% 29.81 in 2.0 mi SSE 10.4 mph 20.7 mph 0.07 in Rain Heavy Rain
2:47 PM 66.2 °F 64.4 °F 94% 29.79 in 6.0 mi SSE 13.8 mph 20.7 mph 0.10 in Rain Light Rain
2:52 PM 68.0 °F 64.9 °F 90% 29.79 in 10.0 mi SSE 9.2 mph 20.7 mph 0.10 in Rain Light Rain
2:59 PM 68.0 °F 64.4 °F 88% 29.78 in 10.0 mi SSE 11.5 mph 19.6 mph 0.00 in Rain Light Rain
3:52 PM 68.0 °F 66.0 °F 93% 29.76 in 10.0 mi SSE 15.0 mph 24.2 mph 0.03 in Rain Light Rain
4:52 PM 69.1 °F 66.0 °F 90% 29.74 in 9.0 mi SSE 11.5 mph 24.2 mph 0.02 in Rain Light Rain
5:52 PM 71.1 °F 66.0 °F 84% 29.72 in 10.0 mi South 18.4 mph 27.6 mph 0.01 in   Overcast
6:52 PM 72.0 °F 66.0 °F 81% 29.68 in 10.0 mi South 16.1 mph 28.8 mph 0.00 in   Overcast
7:52 PM 71.1 °F 66.0 °F 84% 29.67 in 10.0 mi South 15.0 mph 32.2 mph 0.01 in Rain Light Rain
8:52 PM 71.1 °F 66.9 °F 87% 29.66 in 8.0 mi South 16.1 mph 33.4 mph 0.06 in Rain Light Rain
9:52 PM 71.1 °F 68.0 °F 90% 29.63 in 5.0 mi South 16.1 mph 31.1 mph 0.17 in Rain Rain
10:18 PM 71.6 °F 68.0 °F 88% 29.64 in 4.0 mi South 20.7 mph 34.5 mph 0.11 in Rain Heavy Rain
10:52 PM 70.0 °F 66.9 °F 90% 29.66 in 8.0 mi SSW 20.7 mph 33.4 mph 0.24 in Rain Rain
11:52 PM 68.0 °F 66.0 °F 93% 29.68 in 7.0 mi South 11.5 mph - 0.16 in Rain Rain